{"data":{"norad_id":57707,"intl_designator":"2023-129K","name":"STARLINK-30327","alt_names":[],"object_type":"PAYLOAD","status":"ACTIVE","operator":null,"country":"US","launch_date":"2023-08-27","launch_site_code":"AFETR","launch_vehicle":null,"mission":null,"orbit_class":"UNKNOWN","rcs_meters":null,"size_class":null,"mass_kg":null,"dimensions":null,"purposes":["comms"],"wikipedia_slug":null,"has_3d_model":false,"image_url":null,"decayed_at":null,"tle_current":{"epoch":"2026-09-20T22:00:03.000096Z","epoch_age_seconds":95680,"freshness":"FRESH","line1":"1 57707U 23129K   26263.91670139  .00350923  00000+0  31398-2 0  9995","line2":"2 57707  42.9855  39.9958 0035441 322.2623  76.1362 15.65713140  5947","mean_motion":15.6571314,"eccentricity":0.0035441,"inclination_deg":42.9855,"raan_deg":39.9958,"arg_perigee_deg":322.2623,"mean_anomaly_deg":76.1362,"bstar":0.0031398,"rev_number":594,"period_min":91.97087021956,"perigee_km":347.26827299534,"apogee_km":395.10884241346,"semimajor_km":6749.3255577044,"source":"CELESTRAK","updated_at":"2026-09-21T09:00:33.675207Z"}}}